Terug naar catalogus

STARLINK-37369

ActiefCommunicatieVLEO
NORAD 69529·PAYLOAD·🇺🇸 United States

Gelanceerd Jun 12, 2026 vanaf Cape Canaveral Space Force Station

Loading…

Volgende Passages (komende 24 uur)

TLE

VersSource: CelesTrak SupGP

Epoch: Sep 15, 2026, 03:45 UTC

1 69529C 26133X   26258.15673611 -.00040022  00000+0 -11823-2 0  2583
2 69529  53.1573 254.3972 0001321  86.7537  61.8086 15.34415315    14

Volg STARLINK-37369 in realtime met AllMySat

Download on the App Store